Showing default

IRIDIUM 154, 43574

Orbit data source: Space-Track

IRIDIUM 154, 43574 is a payload satellite owned by Iridium (US) in LEO that was launched on Wed, 25 Jul 2018 UTC via an FALCON 9 launch vehicle from the Air Force Western Test Range (AFWTR). Payload-class satellites include a variety of spacecraft equipped with specific instruments for various scientific and technological missions. These include communications satellites like Starlink; space stations such as the ISS; scientific satellites like the Hubble; Earth observation satellites from companies like Planet Labs, Umbra, and HawkEye 360; GPS; miniature CubeSats for education and research; and military/defense satellites.

Loading next visibility...
Identifier
43574, 2018-061F
Orbit
LEO
Country
Flag of USUS
Related business
Manufacturer
NGIS SSG Gilbert
Mission
Operational Commercial Communications
Bus & Motor
ELITEBUS, Unknown motor
Mass
860 kg wet, 700 kg dry
Launch date (UTC)
2018-07-25 (8 years ago)
Launch vehicle
FALCON 9
Launch site
Air Force Western Test Range (AFWTR)
Object type
Payload
Rocket body
Debris
Shape & HBR
Trap Box + 2 Pan, 4.8 m
Radar Cross Section
10.154 m², Large (>1 m²)

Expand to show TLE details & history
Last TLE update: 12 hours ago

TLE from 12 hours ago
0 IRIDIUM 154
1 43574U 18061F   26256.41900959  .00000008  00000-0 -40479-5 0  9995
2 43574  86.3999  19.9058 0001939  93.2308 266.9110 14.34217095426056
Epoch: 2026-09-13T10:03Z
TLE epoch observation values (Epoch: 2026-09-13T10:03:22.428Z)
Latitude
0.00001°
Longitude
-123.35158°
Altitude
780.795 km
Speed
7.463 km/s
True Right ascension
01h 19m 37s
True Declination
0° 00' 00"
Sunlit
Object was in full shadow at epoch
Visualization orbit readout
Latitude
Unknown
Longitude
Unknown
Altitude
Unknown
Speed
Unknown
Apparent Right ascension
Unknown
Apparent Declination
Unknown
Sunlit
N/A
Visualization observer readout
Local Sidereal Time
14:21:50
Azimuth
Unknown
Elevation
Unknown
Doppler factor
Unknown
Orbital elements
Apogee altitude
776.021 km
Perigee altitude
773.247 km
Semi-major axis
7,152.771 km
Eccentricity
0.00019
Inclination
86.3999°
RAAN
19.9058°
Arg. of periapsis
93.2308°
True anomaly
266.88881°
Mean anomaly
266.911°
Eccentric anomaly
266.89991°
Mean motion
3.58783 °/min
Orbital period
100.34 mins
BSTAR
-0.0000040479
Loading maneuver chart data...
Computing Atmospheric mass density...
Loading historical data...
Loading historical data...
Loading historical data...
Loading historical data...
Loading historical data...
Loading historical data...
Loading historical data...

Documentation

Showing up to 5 results
|